Terminal Aerodrome Forecast
Issued by NWS

Home | Current Version | Previous Version | Text Only | Print | Product List | Glossary On
Versions: 1 2 3 4 5 6 7 8 9 10 11 12 13 14 15 16 17 18 19 20 21 22 23 24 25 26 27
000
FTUS43 KDLH 180300 AAB
TAFHYR
TAF AMD
KHYR 180357Z 1804/1824 VRB03KT 2SM BR SKC
      TEMPO 1804/1808 1/4SM FZFG VV002
     FM181800 11005KT P6SM BKN150=

USA.gov is the U.S. government's official web portal to all federal, state and local government web resources and services.